Flag for Germany Weather past 2 weeks in Lehrte, Lower Saxony, Germany

Now
53 °F

Passing clouds.


Feels Like: 52 °F
Forecast: 52 / 65 °F
Wind: 3 mph from Southwest

Location: Hannover

Current Time: Sep 2, 2015 at 5:16:31 AM

Latest Report: Sep 2, 2015 at 4:00 AM


Visibility: 16 mi

Pressure: 29.99 "Hg

Humidity: 93%

Dew point: 51 °F

Location of LehrteLocation

Historic Weather in Lehrte — Graph

°F

Lehrte temperature yesterday

Maximum temperature yesterday: 73 °F (at 1:00 AM)
Minimum temperature yesterday: 57 °F (at 11:00 PM)
Average temperature yesterday: 64 °F

Past Weeks' High & Low Weather Summary

 TemperatureHumidityPressure
High89 °F (Aug 31, 6:00 PM)100% (Aug 29, 4:00 AM)30.29 "Hg (Aug 29, 4:00 AM)
Low49 °F (Aug 29, 7:00 AM)30% (Aug 22, 1:00 PM)29.59 "Hg (Aug 24, 7:00 PM)
Average66 °F74%30.00 "Hg
* Reported Aug 18 4:00 AM — Sep 2 4:00 AM, Lehrte, Weather by CustomWeather, © 2015

Note: Actual official high and low records may vary slightly from our data, if they occured in-between our weather recording intervals... More about our weather records

Advertising

Lehrte weather history for previous 24 hours

 ConditionsComfort  
Time TempWeatherWind HumidityBarometerVisibility
4:00 AM
Wed, Sep 2
53 °FPassing clouds.3 mph93%29.99 "Hg16 mi
3:00 AM54 °FPassing clouds.3 mph92%29.99 "Hg17 mi
2:00 AM55 °FPassing clouds.5 mph90%29.98 "Hg16 mi
1:00 AM56 °FPassing clouds.3 mph89%29.98 "Hg16 mi
11:00 PM
Tue, Sep 1
57 °FPassing clouds.3 mph89%29.96 "Hg16 mi
10:00 PM58 °FPassing clouds.2 mph91%29.95 "Hg16 mi
9:00 PM59 °FPassing clouds.5 mph90%29.93 "Hg16 mi
8:00 PM60 °FLow clouds.5 mph90%29.91 "Hg16 mi
7:00 PM61 °FLow clouds.5 mph92%29.89 "Hg17 mi
6:00 PM60 °FLight rain. Low clouds.6 mph93%29.88 "Hg12 mi
5:00 PM60 °FLight rain. Low clouds.5 mph92%29.87 "Hg11 mi
4:00 PM61 °FLight rain. Low clouds.6 mph90%29.85 "Hg9 mi
3:00 PM62 °FLight rain. Low clouds.6 mph91%29.83 "Hg9 mi
2:00 PM63 °FLight rain. Low clouds.6 mph90%29.82 "Hg8 mi
1:00 PM62 °FRain. Overcast.7 mph89%29.80 "Hg7 mi
12:00 PM66 °FOvercast.7 mph78%29.78 "Hg28 mi
10:00 AM67 °FOvercast.5 mph78%29.79 "Hg25 mi
9:00 AM67 °FOvercast.5 mph74%29.78 "Hg25 mi
8:00 AM67 °FPartly sunny.5 mph79%29.77 "Hg12 mi
7:00 AM67 °FOvercast.2 mph87%29.75 "Hg12 mi
Weather by CustomWeather, © 2015

See weather overviewHow to use our weather pages